This is the latest recevied weather packets stored in our database for station/object KH6DH-13. If no packets are shown the sender has not sent any weather packets the latest 10 day(s).
| Time | Temp. | Humidity | Pressure | Rain* | Wind** | Luminosity | Snow |
|---|---|---|---|---|---|---|---|
| 1777771927 | 29.44° C | - | - | 0 mm | 2.24 m/s, 103° | - | - |
| 1777771326 | 30° C | - | - | 0 mm | 2.68 m/s, 60° | - | - |
| 1777770722 | 30.56° C | - | - | 0 mm | 1.34 m/s, 121° | - | - |
| 1777770121 | 30.56° C | - | - | 0 mm | 1.34 m/s, 84° | - | - |
| 1777769520 | 28.89° C | - | - | 0 mm | 1.79 m/s, 68° | - | - |
| 1777768919 | 28.89° C | - | - | 0 mm | 2.24 m/s, 68° | - | - |
| 1777768318 | 28.89° C | - | - | 0 mm | 2.24 m/s, 53° | - | - |
| 1777767717 | 28.89° C | - | - | 0 mm | 1.79 m/s, 101° | - | - |
| 1777767116 | 28.89° C | - | - | 0 mm | 1.34 m/s, 104° | - | - |
| 1777766515 | 28.89° C | - | - | 0 mm | 2.68 m/s, 46° | - | - |
| 1777765914 | 28.33° C | - | - | 0 mm | 1.79 m/s, 83° | - | - |
| 1777765313 | 28.33° C | - | - | 0 mm | 3.13 m/s, 51° | - | - |
| 1777764712 | 27.78° C | - | - | 0 mm | 3.13 m/s, 72° | - | - |
| 1777764111 | 27.78° C | - | - | 0 mm | 1.79 m/s, 72° | - | - |
| 1777763510 | 28.33° C | - | - | 0 mm | 2.24 m/s, 63° | - | - |
| 1777762909 | 28.33° C | - | - | 0 mm | 3.13 m/s, 110° | - | - |
| 1777762308 | 27.78° C | - | - | 0 mm | 2.68 m/s, 56° | - | - |
| 1777761707 | 27.78° C | - | - | 0 mm | 2.68 m/s, 15° | - | - |
| 1777761106 | 28.33° C | - | - | 0 mm | 2.68 m/s, 103° | - | - |
| 1777760505 | 27.78° C | - | - | 0 mm | 3.13 m/s, 62° | - | - |
| 1777759904 | 27.78° C | - | - | 0 mm | 2.24 m/s, 63° | - | - |
| 1777759303 | 27.22° C | - | - | 0 mm | 1.79 m/s, 77° | - | - |
| 1777758702 | 27.22° C | - | - | 0 mm | 1.34 m/s, 30° | - | - |
| 1777758101 | 26.67° C | - | - | 0 mm | 3.13 m/s, 70° | - | - |
| 1777757500 | 27.22° C | - | - | 0 mm | 1.79 m/s, 83° | - | - |
* Rain latest hour (hover to see other rain measurements)
** Current wind speed in m/s (hover to see current wind gust speed)